Location: Melbourne
(37.8666°S, 145.1333°E)
Time: 23:07:14
(UTC+10:00)

Amateur Radio Satellites - All Passes

Search period start: 30 April 2016 22:37
Search period end: 01 May 2016 22:37
Location: Melbourne, 37.8666°S, 145.1333°E

Satellite Date Start Highest point End Downlink Frequencies (MHz)
Time Altitude Azimuth
GONETS M04 30 Apr 22:55:27 23:03:38 39° 106° (ESE) 23:11:45
CUBEBUG 1 30 Apr 23:00:11 23:02:58 16° 87° (E) 23:05:44 437.445
HO-68 30 Apr 23:02:03 23:03:49 11° 231° (SW) 23:05:36 435.675
HUMSAT D 30 Apr 23:02:37 23:06:54 52° 254° (WSW) 23:11:07 437.325/437.525
50 SAT 30 Apr 23:03:13 23:06:05 20° 85° (E) 23:08:53 437.505
QB50P2 30 Apr 23:08:10 23:12:23 74° 282° (WNW) 23:16:41 145.880/145.840
Cosmos 2499 30 Apr 23:10:10 23:16:44 25° 112° (ESE) 23:22:52 435.465 / 435.565
POLYITAN 1 30 Apr 23:10:17 23:14:29 73° 282° (WNW) 23:18:46 437.675
ZACube-1 30 Apr 23:10:25 23:12:38 13° 245° (WSW) 23:14:50 437.345
DUCHIFAT 1 30 Apr 23:12:07 23:16:19 78° 283° (WNW) 23:20:35 145.980
AIST 1 30 Apr 23:12:12 23:16:17 39° 102° (ESE) 23:20:17
POPSAT HIP 1 30 Apr 23:13:45 23:17:57 68° 282° (WNW) 23:22:13 437.405
QB50P1 30 Apr 23:17:20 23:21:30 60° 281° (W) 23:25:45 145.935-145.965
VELOX 1 30 Apr 23:18:32 23:22:20 27° 84° (E) 23:26:06 145.980
DX 1 30 Apr 23:25:57 23:29:47 29° 83° (E) 23:33:35 434.975-435.025
UKube-1 30 Apr 23:37:58 23:41:54 32° 82° (E) 23:45:48 .
PHONESAT 2.4 30 Apr 23:44:46 23:47:59 81° 196° (SSW) 23:51:12 2401.200-2431.200
AISAT 30 Apr 23:49:41 23:54:09 66° 78° (ENE) 23:58:33 437.250
NANOSAT C BR1 30 Apr 23:54:51 23:58:14 23° 275° (W) 00:01:41 145.865
ESTCUBE 1 30 Apr 23:56:01 00:00:36 78° 257° (WSW) 00:05:07 437.505/2401.250
BUGSAT 1 01 May 00:07:16 00:11:02 35° 278° (W) 00:14:49 437.445
JAS-2 01 May 00:10:55 00:17:58 55° 108° (ESE) 00:24:18 435.910
SPROUT 01 May 00:13:15 00:17:23 41° 81° (E) 00:21:29 437.525
Gurwin Techsat 1B 01 May 00:23:06 00:26:22 17° 117° (ESE) 00:29:41 435.225
CUBEBUG 1 01 May 00:35:19 00:39:24 39° 252° (WSW) 00:43:27 437.445
50 SAT 01 May 00:36:40 00:39:49 24° 250° (WSW) 00:42:55 437.505
Oscar 19 01 May 00:50:09 00:55:19 72° 106° (ESE) 01:00:31 437.125/150
AIST 1 01 May 00:51:05 00:53:29 15° 266° (W) 00:55:52
GONETS M04 01 May 00:52:16 01:00:25 43° 267° (W) 01:08:33
ISS 01 May 00:54:52 00:56:30 13° 161° (SSE) 00:58:06 145.825
VELOX 1 01 May 00:55:03 00:58:41 25° 248° (WSW) 01:02:16 145.980
TISAT 1 01 May 00:58:27 01:02:27 38° 82° (E) 01:06:24 437.305
Cosmos 2499 01 May 01:02:20 01:10:28 61° 271° (W) 01:17:54 435.465 / 435.565
DX 1 01 May 01:02:21 01:05:49 23° 248° (WSW) 01:09:15 434.975-435.025
AO-85 01 May 01:12:04 01:15:52 75° 238° (WSW) 01:19:44 145.980
UKube-1 01 May 01:14:28 01:17:43 21° 247° (WSW) 01:20:57 .
SWISSCUBE 01 May 01:15:10 01:16:46 11° 90° (E) 01:18:21 437.505
PHONESAT 2.4 01 May 01:21:54 01:25:03 50° 179° (S) 01:28:12 2401.200-2431.200
AISAT 01 May 01:28:40 01:30:01 11° 243° (WSW) 01:31:23 437.250
BEESAT 01 May 01:46:45 01:50:39 24° 85° (E) 01:54:29 436.000
SPROUT 01 May 01:50:18 01:52:59 16° 246° (WSW) 01:55:40 437.525
JAS-2 01 May 01:57:17 02:03:07 26° 275° (W) 02:08:32 435.910
Gurwin Techsat 1B 01 May 02:00:30 02:05:46 62° 281° (W) 02:11:07 435.225
ITAMSAT 1 01 May 02:02:13 02:07:22 59° 107° (ESE) 02:12:35 435.822/435.867
CUSAT 1 01 May 02:15:10 02:21:54 34° 88° (E) 02:27:44 437.405
AO-7 01 May 02:26:57 02:34:54 49° 116° (ESE) 02:42:54 29.400- 29.500
ISS 01 May 02:30:14 02:33:33 58° 142° (SE) 02:36:50 145.825
DANDE 01 May 02:31:04 02:37:43 27° 93° (E) 02:43:54 436.750
Oscar 19 01 May 02:33:11 02:35:07 12° 270° (W) 02:37:03 437.125/150
TISAT 1 01 May 02:35:02 02:37:47 17° 247° (WSW) 02:40:31 437.305
PCSat 01 May 02:35:23 02:38:42 17° 76° (ENE) 02:42:02 145.827
ITUPSAT 1 01 May 02:39:04 02:44:00 83° 76° (ENE) 02:48:49 437.325
O/OREOS (USA 219) 01 May 02:42:59 02:47:21 55° 73° (ENE) 02:51:49 437.305
SO-50 01 May 02:46:09 02:46:41 10° 140° (SE) 02:47:14 436.795
SWISSCUBE 01 May 02:50:09 02:55:00 67° 254° (WSW) 02:59:45 437.505
PHONESAT 2.4 01 May 02:58:51 03:02:05 83° 345° (NNW) 03:05:17 2401.200-2431.200
KKS-1 01 May 03:01:26 03:04:22 17° 87° (E) 03:07:17 437.445
BEESAT 01 May 03:24:05 03:28:26 34° 249° (WSW) 03:32:45 436.000
HORYU 2 01 May 03:24:33 03:28:09 24° 112° (ESE) 03:31:47 437.375
STARS 01 May 03:25:57 03:28:42 16° 87° (E) 03:31:25 437.465
ITAMSAT 1 01 May 03:44:09 03:47:12 15° 272° (W) 03:50:16 435.822/435.867
CUSAT 1 01 May 03:56:38 04:03:54 44° 257° (WSW) 04:10:03 437.405
NOAA 15 01 May 04:04:55 04:07:25 13° 119° (ESE) 04:09:55 137.62
Cosmos 2491 01 May 04:05:44 04:10:27 15° 118° (ESE) 04:15:07 435.465 / 435.565
ISS 01 May 04:08:04 04:09:38 13° 308° (NW) 04:11:14 145.825
DANDE 01 May 04:11:46 04:20:10 65° 259° (W) 04:27:44 436.750
PCSat 01 May 04:16:12 04:21:32 60° 240° (WSW) 04:26:56 145.827
MOZHAYETS 4 01 May 04:19:21 04:24:06 81° 78° (ENE) 04:28:46
ITUPSAT 1 01 May 04:19:59 04:21:04 11° 241° (WSW) 04:22:10 437.325
AO-7 01 May 04:20:15 04:27:45 36° 278° (W) 04:35:21 29.400- 29.500
SO-50 01 May 04:23:20 04:27:57 70° 122° (ESE) 04:32:40 436.795
O/OREOS (USA 219) 01 May 04:24:41 04:27:09 14° 236° (SW) 04:29:36 437.305
PHONESAT 2.4 01 May 04:36:24 04:38:40 18° 327° (NNW) 04:40:54 2401.200-2431.200
KKS-1 01 May 04:36:51 04:41:05 40° 252° (WSW) 04:45:16 437.445
NOAA 18 01 May 04:40:02 04:44:35 27° 114° (ESE) 04:49:11 137.9125
CUTE-I 01 May 04:50:56 04:55:11 24° 114° (ESE) 04:59:28 437.470
LilacSat-2 01 May 04:52:26 04:54:31 14° 113° (ESE) 04:56:37 437.200
HORYU 2 01 May 05:00:44 05:04:34 28° 277° (W) 05:08:28 437.375
STARS 01 May 05:01:00 05:05:13 42° 252° (WSW) 05:09:24 437.465
Cubesat XI-IV 01 May 05:33:10 05:38:26 59° 107° (ESE) 05:43:47 437.490
GOMX 1 01 May 05:35:26 05:39:10 24° 110° (ESE) 05:42:44 467.674
NOAA 15 01 May 05:41:09 05:46:29 77° 283° (WNW) 05:51:52 137.62
BRITE-PL 01 May 05:46:32 05:51:43 70° 104° (ESE) 05:56:33 437.365/2234.400
DOVE 4 01 May 05:46:34 05:48:43 13° 114° (ESE) 05:50:49 437.250
HO-68 01 May 05:52:53 05:56:46 15° 125° (SE) 06:00:38 435.675
CUBESAT XI-V 01 May 05:57:03 06:01:47 86° 257° (WSW) 06:06:25 437.345
M-CUBED/EXP-1 PRIME 01 May 05:58:05 06:01:15 45° 111° (ESE) 06:04:28 437.505
Cosmos 2491 01 May 05:59:51 06:08:43 81° 97° (E) 06:17:32 435.465 / 435.565
MOZHAYETS 4 01 May 06:00:00 06:00:32 10° 242° (WSW) 06:01:04
DANDE 01 May 06:01:07 06:04:05 12° 243° (WSW) 06:06:57 436.750
PCSat 01 May 06:05:53 06:06:05 10° 220° (SW) 06:06:18 145.827
SO-50 01 May 06:06:15 06:07:52 12° 287° (WNW) 06:09:30 436.795
YUBILEINY 01 May 06:10:15 06:18:24 45° 92° (E) 06:26:39 435.215
STRAND 1 01 May 06:12:17 06:13:27 11° 91° (E) 06:14:38 437.568
AUBIESAT-1 01 May 06:18:58 06:22:17 74° 109° (ESE) 06:25:41 437.475
NOAA 18 01 May 06:19:56 06:25:00 38° 278° (W) 06:30:11 137.9125
BEESAT 3 01 May 06:23:05 06:26:52 49° 64° (ENE) 06:30:42 437.485
LilacSat-2 01 May 06:24:58 06:28:29 35° 278° (W) 06:32:04 437.200
BEESAT 2 01 May 06:25:34 06:29:01 29° 67° (ENE) 06:32:31 435.950
CUTE 1.7 + AOD 2 01 May 06:29:48 06:31:26 12° 116° (ESE) 06:33:05 437.475
CUTE-I 01 May 06:29:53 06:34:56 41° 279° (W) 06:40:05 437.470
CINEMA 3 01 May 06:48:16 06:51:11 18° 112° (ESE) 06:54:07 145.822/145.860
SEEDS 01 May 07:00:19 07:03:23 19° 113° (ESE) 07:06:27 437.485
COMPASS 1 01 May 07:08:55 07:11:42 17° 113° (ESE) 07:14:29 437.405
GOMX 1 01 May 07:12:54 07:17:07 31° 277° (W) 07:21:09 467.674
Cubesat XI-IV 01 May 07:15:36 07:18:52 16° 272° (W) 07:22:09 437.490
DOVE 4 01 May 07:21:42 07:26:02 50° 280° (W) 07:30:14 437.250
BRITE-PL 01 May 07:28:38 07:30:29 12° 271° (W) 07:32:19 437.365/2234.400
Cosmos 2504 01 May 07:28:49 07:36:34 39° 94° (E) 07:44:36 435.465 / 435.565
CANX-2 01 May 07:29:08 07:33:23 65° 104° (ESE) 07:37:43 2200.000
RS-15 01 May 07:35:47 07:42:03 16° 82° (E) 07:48:10 29.354- 29.394
HO-68 01 May 07:36:10 07:43:22 83° 108° (ESE) 07:50:39 435.675
AIST 2 01 May 07:37:50 07:39:20 12° 72° (ENE) 07:40:50 435.215
Oscar 11 01 May 07:40:18 07:42:19 13° 116° (ESE) 07:44:20 145.826/435.025
AAUSAT CUBESAT 2 01 May 07:41:15 07:44:58 31° 109° (ESE) 07:48:45 437.432
STRAND 1 01 May 07:47:57 07:53:12 79° 255° (WSW) 07:58:21 437.568
FUNcube-1 01 May 07:48:15 07:49:55 12° 116° (ESE) 07:51:36 145.935
UWE-3 01 May 07:50:47 07:53:54 20° 112° (ESE) 07:57:04 435.000/436.395/437.385
CUBEBUG 2 01 May 07:52:05 07:55:44 30° 109° (ESE) 07:59:29 437.445
Cosmos 2491 01 May 07:58:52 08:04:24 19° 259° (W) 08:09:57 435.465 / 435.565
CUTE 1.7 + AOD 2 01 May 08:02:29 08:06:43 59° 281° (W) 08:11:03 437.475
BEESAT 3 01 May 08:02:31 08:04:51 15° 227° (SW) 08:07:12 437.485
BEESAT 2 01 May 08:03:42 08:06:53 22° 230° (SW) 08:10:05 435.950
YUBILEINY 01 May 08:07:14 08:15:14 38° 253° (WSW) 08:23:22 435.215
JUGNU 01 May 08:13:16 08:15:47 13° 1° (N) 08:18:18 437.505
CINEMA 3 01 May 08:24:19 08:28:06 32° 277° (W) 08:31:54 145.822/145.860
ZACube-1 01 May 08:26:36 08:30:24 34° 108° (ESE) 08:34:19 437.345
PRISM 01 May 08:31:04 08:35:12 64° 79° (E) 08:39:16 437.425
SEEDS 01 May 08:34:56 08:38:48 34° 277° (W) 08:42:45 437.485
COMPASS 1 01 May 08:42:59 08:46:56 38° 278° (W) 08:50:57 437.405
SRMSAT 01 May 09:08:37 09:10:22 11° 8° (N) 09:12:06 437.500
AIST 2 01 May 09:13:13 09:17:18 56° 237° (WSW) 09:21:26 435.215
Oscar 11 01 May 09:13:39 09:17:55 55° 280° (W) 09:22:17 145.826/435.025
DELFI C3 01 May 09:15:23 09:19:26 74° 104° (ESE) 09:23:33 145.870
AAUSAT CUBESAT 2 01 May 09:17:24 09:20:30 20° 274° (W) 09:23:37 437.432
Cosmos 2504 01 May 09:21:31 09:29:44 46° 255° (WSW) 09:38:17 435.465 / 435.565
FUNcube-1 01 May 09:21:32 09:25:38 55° 280° (W) 09:29:52 145.935
UWE-3 01 May 09:26:29 09:30:10 30° 276° (W) 09:33:56 435.000/436.395/437.385
HO-68 01 May 09:27:40 09:31:48 16° 271° (W) 09:35:59 435.675
CUBEBUG 2 01 May 09:29:22 09:32:25 19° 274° (W) 09:35:31 437.445
RS-15 01 May 09:40:41 09:52:36 77° 63° (ENE) 10:04:00 29.354- 29.394
AO-85 01 May 09:43:54 09:48:22 54° 123° (ESE) 09:53:12 145.980
UNISAT 6 01 May 09:48:08 09:51:37 20° 86° (E) 09:55:06 437.425
HUMSAT D 01 May 09:51:38 09:55:48 84° 105° (ESE) 10:00:05 437.325/437.525
CUBEBUG 1 01 May 09:55:45 09:57:28 12° 116° (ESE) 09:59:12 437.445
JUGNU 01 May 10:03:11 10:03:53 10° 350° (N) 10:04:36 437.505
ZACube-1 01 May 10:03:59 10:06:48 17° 273° (W) 10:09:41 437.345
TIGRISAT 01 May 10:06:02 10:10:10 30° 84° (E) 10:14:17 435.000
PRISM 01 May 10:09:32 10:09:56 10° 243° (WSW) 10:10:19 437.425
VELOX 1 01 May 10:14:31 10:17:51 21° 113° (ESE) 10:21:10 145.980
DX 1 01 May 10:20:07 10:23:26 21° 113° (ESE) 10:26:46 434.975-435.025
ANTELSAT 01 May 10:29:33 10:34:11 57° 80° (E) 10:38:50 437.575/2403.000
UKube-1 01 May 10:31:05 10:34:30 23° 112° (ESE) 10:37:56 .
AISAT 01 May 10:45:08 10:49:23 46° 107° (ESE) 10:53:41 437.250
ESTCUBE 1 01 May 10:53:16 10:57:51 77° 104° (ESE) 11:02:29 437.505/2401.250
QB50P2 01 May 10:55:41 10:58:56 20° 85° (E) 11:02:08 145.880/145.840
SRMSAT 01 May 10:56:06 10:58:39 13° 358° (N) 11:01:12 437.500
POLYITAN 1 01 May 10:57:45 11:01:02 21° 85° (E) 11:04:18 437.675
DUCHIFAT 1 01 May 10:58:58 11:02:02 19° 86° (E) 11:05:04 145.980
POPSAT HIP 1 01 May 11:00:59 11:04:21 22° 85° (E) 11:07:41 437.405
QB50P1 01 May 11:04:20 11:07:52 24° 85° (E) 11:11:22 145.935-145.965
SPROUT 01 May 11:05:25 11:08:57 26° 111° (ESE) 11:12:32 437.525
50 SAT 01 May 11:12:37 11:16:21 70° 281° (WNW) 11:20:10 437.505
UNISAT 6 01 May 11:24:05 11:28:24 37° 251° (WSW) 11:32:44 437.425
PCSat 01 May 11:24:47 11:26:50 12° 138° (SE) 11:28:53 145.827
AO-85 01 May 11:25:32 11:28:30 17° 290° (WNW) 11:31:35 145.980
CUBEBUG 1 01 May 11:28:51 11:33:12 60° 281° (W) 11:37:36 437.445
AIST 1 01 May 11:39:51 11:43:29 26° 91° (E) 11:47:07
NANOSAT C BR1 01 May 11:40:00 11:44:17 61° 79° (ENE) 11:48:30 145.865
TIGRISAT 01 May 11:42:50 11:46:42 26° 249° (WSW) 11:50:34 435.000
Cosmos 2499 01 May 11:44:22 11:50:43 23° 100° (E) 11:57:08 435.465 / 435.565
TISAT 1 01 May 11:48:49 11:52:08 23° 111° (ESE) 11:55:29 437.305
VELOX 1 01 May 11:50:01 11:54:04 34° 278° (W) 11:58:09 145.980
BUGSAT 1 01 May 11:50:35 11:54:22 34° 82° (E) 11:58:09 437.445
GONETS M04 01 May 11:54:05 12:02:16 48° 92° (E) 12:10:31
DX 1 01 May 11:55:28 11:59:24 32° 278° (W) 12:03:23 434.975-435.025
RS-15 01 May 11:55:49 12:06:07 34° 220° (SW) 12:16:05 29.354- 29.394
UKube-1 01 May 12:06:35 12:10:23 29° 277° (W) 12:14:13 .
ANTELSAT 01 May 12:07:52 12:10:24 15° 245° (WSW) 12:12:57 437.575/2403.000
SWISSCUBE 01 May 12:20:15 12:22:09 12° 118° (ESE) 12:24:03 437.505
AISAT 01 May 12:23:38 12:26:05 15° 273° (W) 12:28:33 437.250
QB50P2 01 May 12:30:55 12:34:44 31° 250° (WSW) 12:38:32 145.880/145.840
POLYITAN 1 01 May 12:33:02 12:36:51 30° 251° (WSW) 12:40:38 437.675
DUCHIFAT 1 01 May 12:33:55 12:37:46 33° 251° (WSW) 12:41:36 145.980
POPSAT HIP 1 01 May 12:36:23 12:40:07 29° 250° (WSW) 12:43:48 437.405
QB50P1 01 May 12:39:58 12:43:34 26° 250° (WSW) 12:47:08 145.935-145.965
SPROUT 01 May 12:41:18 12:44:49 25° 276° (W) 12:48:23 437.525
BEESAT 01 May 12:51:35 12:55:20 23° 113° (ESE) 12:59:08 436.000
O/OREOS (USA 219) 01 May 12:54:34 12:59:12 80° 111° (ESE) 13:03:49 437.305
Oscar 19 01 May 13:04:01 13:08:30 29° 84° (E) 13:12:56 437.125/150
PCSat 01 May 13:05:44 13:11:12 73° 118° (ESE) 13:16:36 145.827
JAS-2 01 May 13:07:40 13:12:47 47° 81° (E) 13:17:48 435.910
AIST 1 01 May 13:17:28 13:20:59 23° 255° (WSW) 13:24:33
NANOSAT C BR1 01 May 13:18:05 13:19:27 11° 244° (WSW) 13:20:48 145.865
TISAT 1 01 May 13:24:06 13:27:39 26° 276° (W) 13:31:15 437.305
BUGSAT 1 01 May 13:26:42 13:29:29 18° 247° (WSW) 13:32:16 437.445
Cosmos 2499 01 May 13:34:06 13:42:52 74° 262° (W) 13:51:51 435.465 / 435.565
ITUPSAT 1 01 May 13:43:44 13:48:33 78° 105° (ESE) 13:53:27 437.325
GONETS M04 01 May 13:51:28 13:59:12 35° 253° (WSW) 14:07:04
SWISSCUBE 01 May 13:54:28 13:59:16 72° 283° (WNW) 14:04:10 437.505
KKS-1 01 May 13:58:47 14:00:57 13° 116° (ESE) 14:03:07 437.445
RS-15 01 May 14:17:19 14:23:33 16° 186° (S) 14:29:40 29.354- 29.394
ITAMSAT 1 01 May 14:17:36 14:21:51 24° 85° (E) 14:26:03 435.822/435.867
Gurwin Techsat 1B 01 May 14:18:30 14:23:51 62° 79° (E) 14:29:08 435.225
STARS 01 May 14:22:11 14:23:55 12° 117° (ESE) 14:25:38 437.465
BEESAT 01 May 14:28:30 14:32:54 35° 278° (W) 14:37:21 436.000
AO-7 01 May 14:32:49 14:37:24 15° 89° (E) 14:41:55 29.400- 29.500
CUSAT 1 01 May 14:35:58 14:39:03 40° 274° (W) 14:41:39 437.405
BEESAT 3 01 May 14:42:41 14:45:30 18° 131° (SE) 14:48:19 437.485
Oscar 19 01 May 14:43:14 14:47:45 31° 248° (WSW) 14:52:15 437.125/150
BEESAT 2 01 May 14:46:15 14:48:08 13° 135° (SE) 14:50:00 435.950
PCSat 01 May 14:51:24 14:53:54 13° 283° (WNW) 14:56:22 145.827
JAS-2 01 May 14:53:53 14:57:30 19° 244° (WSW) 15:01:02 435.910
DANDE 01 May 14:57:07 15:01:24 78° 277° (W) 15:04:38 436.750
MOZHAYETS 4 01 May 15:19:04 15:23:38 61° 106° (ESE) 15:28:18
KKS-1 01 May 15:32:38 15:37:00 55° 281° (W) 15:41:26 437.445
Cosmos 2499 01 May 15:33:11 15:37:34 14° 241° (WSW) 15:42:00 435.465 / 435.565
STARS 01 May 15:55:23 15:59:42 61° 282° (WNW) 16:04:07 437.465
ITAMSAT 1 01 May 15:56:30 16:01:23 38° 249° (WSW) 16:06:12 435.822/435.867
Gurwin Techsat 1B 01 May 15:59:57 16:03:14 17° 243° (WSW) 16:06:30 435.225
BEESAT 3 01 May 16:19:40 16:23:21 37° 295° (WNW) 16:26:59 437.485
BEESAT 2 01 May 16:22:25 16:26:23 64° 298° (WNW) 16:30:19 435.950
AO-7 01 May 16:22:42 16:31:10 87° 72° (ENE) 16:39:31 29.400- 29.500
YUBILEINY 01 May 16:23:33 16:29:39 20° 115° (ESE) 16:35:41 435.215
RS-15 01 May 16:33:17 16:41:51 24° 149° (SSE) 16:50:15 29.354- 29.394
HORYU 2 01 May 16:52:38 16:57:10 61° 79° (E) 17:01:39 437.375
CUBESAT XI-V 01 May 16:58:03 17:02:46 75° 103° (ESE) 17:07:34 437.345
MOZHAYETS 4 01 May 16:59:25 17:01:11 12° 270° (W) 17:02:59
NOAA 18 01 May 17:05:27 17:07:41 12° 90° (E) 17:09:54 137.9125
Cosmos 2491 01 May 17:06:01 17:11:21 18° 101° (ESE) 17:16:40 435.465 / 435.565
STRAND 1 01 May 17:25:39 17:28:28 15° 118° (ESE) 17:31:17 437.568
Cosmos 2504 01 May 17:27:34 17:29:44 11° 122° (ESE) 17:31:52 435.465 / 435.565
AIST 2 01 May 17:36:11 17:40:17 51° 124° (ESE) 17:44:20 435.215
Cubesat XI-IV 01 May 17:52:47 17:57:23 27° 85° (E) 18:01:55 437.490
BRITE-PL 01 May 17:53:58 17:57:11 21° 85° (E) 18:00:25 437.365/2234.400
NOAA 15 01 May 17:58:19 18:03:26 46° 81° (E) 18:08:28 137.62
LilacSat-2 01 May 18:00:11 18:03:31 26° 84° (E) 18:06:49 437.200
AO-7 01 May 18:17:07 18:22:52 21° 234° (SW) 18:28:36 29.400- 29.500
YUBILEINY 01 May 18:18:34 18:27:31 83° 274° (W) 18:36:21 435.215
HORYU 2 01 May 18:31:10 18:33:10 13° 243° (WSW) 18:35:10 437.375
SO-50 01 May 18:36:30 18:40:23 32° 67° (ENE) 18:44:18 436.795
NOAA 18 01 May 18:43:16 18:48:55 79° 255° (WSW) 18:54:29 137.9125
RS-15 01 May 18:45:23 18:56:25 76° 122° (ESE) 19:07:20 29.354- 29.394
CUTE-I 01 May 18:48:23 18:53:52 89° 263° (W) 18:59:15 437.470
Cosmos 2491 01 May 18:58:13 19:06:59 83° 262° (W) 19:15:49 435.465 / 435.565
STRAND 1 01 May 19:01:52 19:07:00 67° 282° (WNW) 19:12:14 437.568
HO-68 01 May 19:07:57 19:12:19 17° 89° (E) 19:16:39 435.675
ISS 01 May 19:08:33 19:11:43 46° 44° (NE) 19:14:57 145.825
M-CUBED/EXP-1 PRIME 01 May 19:12:06 19:16:08 53° 74° (ENE) 19:20:26 437.505
GOMX 1 01 May 19:15:24 19:19:41 85° 79° (E) 19:24:07 467.674
AIST 2 01 May 19:16:23 19:18:18 13° 288° (WNW) 19:20:12 435.215
Cosmos 2504 01 May 19:16:32 19:25:05 66° 100° (E) 19:32:53 435.465 / 435.565
CANX-2 01 May 19:17:51 19:19:55 13° 89° (E) 19:21:58 2200.000
PRISM 01 May 19:18:38 19:22:29 36° 109° (ESE) 19:26:23 437.425
DOVE 4 01 May 19:21:37 19:25:50 45° 81° (E) 19:30:14 437.250
BRITE-PL 01 May 19:32:08 19:35:41 27° 250° (WSW) 19:39:15 437.365/2234.400
Cubesat XI-IV 01 May 19:32:32 19:37:28 36° 249° (WSW) 19:42:20 437.490
AUBIESAT-1 01 May 19:32:35 19:36:43 77° 75° (ENE) 19:41:07 437.475
LilacSat-2 01 May 19:34:44 19:37:39 20° 249° (WSW) 19:40:34 437.200
NOAA 15 01 May 19:38:57 19:42:50 21° 245° (WSW) 19:46:42 137.62
CUTE 1.7 + AOD 2 01 May 19:49:40 19:53:23 27° 84° (E) 19:57:02 437.475
SO-50 01 May 20:17:14 20:20:51 25° 229° (SW) 20:24:31 436.795
YUBILEINY 01 May 20:18:39 20:22:49 14° 256° (WSW) 20:26:57 435.215
CINEMA 3 01 May 20:19:27 20:24:01 62° 79° (E) 20:28:44 145.822/145.860
SEEDS 01 May 20:20:19 20:24:28 44° 82° (E) 20:28:32 437.485
COMPASS 1 01 May 20:27:33 20:31:33 37° 82° (E) 20:35:27 437.405
NOAA 18 01 May 20:27:36 20:28:36 10° 237° (WSW) 20:29:36 137.9125
CUTE-I 01 May 20:31:24 20:33:03 11° 239° (WSW) 20:34:42 437.470
ISS 01 May 20:45:42 20:48:22 22° 207° (SSW) 20:51:02 145.825
UNISAT 6 01 May 20:46:33 20:48:48 14° 116° (ESE) 20:51:05 437.425
M-CUBED/EXP-1 PRIME 01 May 20:48:18 20:50:21 14° 242° (WSW) 20:52:27 437.505
CANX-2 01 May 20:51:49 20:56:02 48° 254° (WSW) 21:00:11 2200.000
HO-68 01 May 20:53:25 21:00:43 81° 253° (WSW) 21:07:56 435.675
PRISM 01 May 20:55:08 20:57:53 17° 274° (W) 21:00:41 437.425
DELFI C3 01 May 20:57:34 20:58:40 11° 89° (E) 20:59:45 145.870
RS-15 01 May 20:59:16 21:07:32 26° 283° (WNW) 21:15:52 29.354- 29.394
AAUSAT CUBESAT 2 01 May 21:00:11 21:04:28 75° 79° (ENE) 21:08:39 437.432
Cosmos 2491 01 May 21:00:24 21:05:12 16° 243° (WSW) 21:10:03 435.465 / 435.565
DOVE 4 01 May 21:00:38 21:03:13 15° 247° (WSW) 21:05:50 437.250
Oscar 11 01 May 21:02:55 21:06:50 30° 84° (E) 21:10:42 145.826/435.025
TIGRISAT 01 May 21:03:44 21:06:53 20° 113° (ESE) 21:10:07 435.000
PHONESAT 2.4 01 May 21:09:32 21:11:17 14° 35° (NE) 21:13:02 2401.200-2431.200
FUNcube-1 01 May 21:11:14 21:15:22 32° 83° (E) 21:19:29 145.935
Cosmos 2504 01 May 21:11:21 21:17:32 23° 260° (W) 21:23:25 435.465 / 435.565
UWE-3 01 May 21:16:48 21:21:25 59° 80° (E) 21:26:02 435.000/436.395/437.385
CUBEBUG 2 01 May 21:20:01 21:24:41 88° 253° (WSW) 21:29:26 437.445
CUTE 1.7 + AOD 2 01 May 21:25:35 21:29:05 24° 249° (WSW) 21:32:32 437.475
ANTELSAT 01 May 21:26:47 21:30:47 38° 108° (ESE) 21:34:53 437.575/2403.000
HUMSAT D 01 May 21:38:07 21:40:51 16° 88° (E) 21:43:33 437.325/437.525
QB50P2 01 May 21:47:57 21:49:55 13° 115° (ESE) 21:51:53 145.880/145.840
POLYITAN 1 01 May 21:50:01 21:52:02 13° 115° (ESE) 21:54:01 437.675
DUCHIFAT 1 01 May 21:50:51 21:52:21 12° 116° (ESE) 21:53:53 145.980
ZACube-1 01 May 21:52:03 21:56:40 84° 258° (WSW) 22:01:18 437.345
POPSAT HIP 1 01 May 21:53:00 21:55:09 14° 115° (ESE) 21:57:19 437.405
QB50P1 01 May 21:56:06 21:58:33 15° 114° (ESE) 22:01:02 145.935-145.965
SEEDS 01 May 21:57:16 21:59:46 15° 246° (WSW) 22:02:14 437.485
CINEMA 3 01 May 21:58:37 22:00:40 13° 245° (WSW) 22:02:45 145.822/145.860
COMPASS 1 01 May 22:04:00 22:06:47 17° 247° (WSW) 22:09:33 437.405
GONETS M04 01 May 22:07:16 22:13:38 21° 114° (ESE) 22:19:58
UNISAT 6 01 May 22:20:52 22:25:03 50° 279° (W) 22:29:21 437.425
